Location: Palomar Mountain Lodge
(33.3110°N, 116.8495°W)
Time: 15:24:29
(UTC-07:00)

Meteor 1-5 Rocket - Pass Details

Date: 19 May 2017
Orbit: 789 x 915 km, 81.2° (Epoch: 23 June)

Event Time Altitude Azimuth Distance (km) Brightness Sun altitude
Rises 20:27:19 0° 351° (N) 3,541 8.1 -8.9°
Reaches altitude 10° 20:29:47 10° 352° (N) 2,603 7.3 -9.3°
Maximum altitude 20:35:45 89° 267° (W) 918 4.4 -10.4°
Drops below altitude 10° 20:41:42 10° 174° (S) 2,581 6.4 -11.4°
Sets 20:44:08 0° 174° (S) 3,510 7.0 -11.8°
Enters shadow 20:44:11 - 174° (S) 3,530 7.1 -11.9°
